Regional Weather Roundup
Issued by NWS

Home | Current Version | Previous Version | Graphics & Text | Print | Product List | Glossary On
Versions: 1 2 3 4 5 6 7 8 9 10 11 12 13 14 15 16 17 18 19 20 21 22 23 24 25 26 27 28 29 30 31 32 33 34 35 36 37 38 39 40 41 42 43 44 45 46 47 48 49 50
000
ASUS43 KDMX 171106
RWRIA

WEATHER ROUNDUP FOR IOWA
NATIONAL WEATHER SERVICE DES MOINES IA
600 AM CDT THU AUG 17 2017

NOTE: "FAIR" INDICATES FEW OR NO CLOUDS BELOW 12,000 FEET WITH NO
SIGNIFICANT WEATHER AND/OR OBSTRUCTIONS TO VISIBILITY.

* - THESE STATIONS ARE NOT NWS STATIONS...THUS NOT UNDER NWS
QUALITY CONTROL.  THEY ALSO DO NOT REPORT WEATHER SUCH
AS PRECIPITATION OR FOG.

IAZ001>003-012>014-020>022-031>034-043>046-171200-
   NORTHWEST IOWA

CITY           SKY/WX    TMP DP  RH WIND       PRES   REMARKS
CARROLL *      CLOUDY    66  66 100 W12G20    29.79R
CHEROKEE *     CLOUDY    65  65  97 W10       29.78R
DENISON *      CLOUDY    66  64  94 W8        29.83R
LE MARS *      CLOUDY    66  63  88 W8G16     29.80R
ORANGE CITY *  CLOUDY    66  64  94 NW13      29.79R
SHELDON *      CLOUDY    64  63  94 W12G18    29.76R
SIOUX CITY     CLOUDY    66  62  87 NW12G18   29.82R
SPENCER        CLOUDY    66  64  93 W13       29.75R
STORM LAKE *   CLOUDY    64  64 100 W12       29.77R
$$

IAZ055>058-069>071-079>083-090>094-171200-
   SOUTHWEST IOWA

CITY           SKY/WX    TMP DP  RH WIND       PRES   REMARKS
ATLANTIC *     CLOUDY    64  63  94 W9        29.83R
AUDUBON *      MOCLDY    64  61  88 SW7       29.83R
CLARINDA *       N/A     61  61 100 VRB5      29.89S
COUNCIL BLFS * CLOUDY    64  64 100 W9        29.87R
CRESTON *      MOCLDY    63  63 100 W13       29.85R
HARLAN  *      CLOUDY    64  64 100 W12       29.87R
LAMONI         CLEAR     63  62  97 W10       29.84R
RED OAK *      CLOUDY    64  63  94 SW6       29.86R
SHENANDOAH *   CLEAR     61  61 100 W6        29.88S
$$

IAZ047>049-059>061-072>074-084-171200-
   CENTRAL IOWA

CITY           SKY/WX    TMP DP  RH WIND       PRES   REMARKS
AMES           CLOUDY    66  65  96 SW13      29.76R
ANKENY *       CLOUDY    68  63  83 W9        29.78R
BOONE *        CLOUDY    66  64  94 W9        29.76R
CHARITON *     PTCLDY    64  63  94 W9G15     29.81R
DES MOINES     CLOUDY    67  63  87 W15       29.77S
GRINNELL*      CLOUDY    66  63  90 SW9       29.78R
KNOXVILLE *    CLOUDY    66  63  88 W9G16     29.78S
MARSHALLTOWN   CLOUDY    66  64  93 SW10      29.74
NEWTON *       CLOUDY    66  64  94 SW8       29.77R
PELLA *        CLOUDY    67  62  84 W12       29.79S
PERRY *        CLOUDY    66  65  94 W9G16     29.78R
$$

IAZ004>006-015-016-023>025-035-036-171200-
   NORTH CENTRAL IOWA

CITY           SKY/WX    TMP DP  RH WIND       PRES   REMARKS
ALGONA *       CLOUDY    66  66 100 SW9       29.72R
CLARION *      CLOUDY    66  66 100 W10       29.73R
ESTHERVILLE    CLOUDY    65  63  93 W9        29.70R
FORT DODGE *   CLOUDY    66  63  88 W9        29.75R
MASON CITY     CLOUDY    67  63  87 W16G22    29.70R
FOREST CITY *  CLOUDY    66  63  88 W8G18     29.68R
WEBSTER CITY * CLOUDY    66  64  94 W10G16    29.73R
IOWA FALLS *   CLOUDY    67  64  90 SW9       29.74R
$$

IAZ007>011-017>019-026>030-037>042-050>054-066-171200-
   NORTHEAST IOWA

CITY           SKY/WX    TMP DP  RH WIND       PRES   REMARKS
CEDAR RAPIDS   CLEAR     65  65 100 SW7       29.73
CHARLES CITY * CLOUDY    66  66 100 SW12      29.68R
CLINTON *      MOCLDY    70  69  97 S7        29.74F
DECORAH *      CLOUDY    66  64  94 SW9       29.66S
DUBUQUE        CLEAR     67  64  90 SW9       29.72
MONTICELLO *   CLEAR     68  66  94 SW6       29.72S
OELWEIN *      CLOUDY    66  64  94 SW12G18   29.71S
WATERLOO       CLOUDY    67  63  87 SW14      29.70
$$

IAZ064-065-067-068-078-171200-
   EAST CENTRAL IOWA

CITY           SKY/WX    TMP DP  RH WIND       PRES   REMARKS
DAVENPORT      PTCLDY    71  69  93 S7        29.76
IOWA CITY      CLEAR     70  66  87 SW6       29.76
MT. PLEASANT * CLOUDY    70  69  99 SW8       29.78R
MUSCATINE *    PTCLDY    72  70  94 S7        29.75R
QUAD CITIES    CLOUDY    72  68  87 SW7       29.74
$$

IAZ062-063-075>077-085>089-095>099-171200-
   SOUTHEAST IOWA

CITY           SKY/WX    TMP DP  RH WIND       PRES   REMARKS
BURLINGTON     PTCLDY    70  68  93 SW8       29.78R
FAIRFIELD *    MOCLDY    70  68  94 SW8       29.78R
FORT MADISON * CLOUDY    70  68  94 SW9       29.80R
KEOKUK *       CLOUDY    70  66  88 SW10      29.80R
OSKALOOSA *      N/A     65  64  94 W7        29.79R
CENTERVILLE *    N/A     66  64  94 CALM      29.83S
OTTUMWA        CLEAR     68  66  93 W8        29.78S
WASHINGTON *   CLEAR     70  70 100 SW7       29.78R
$$

ABBREVIATIONS USED IN REMARKS
   TC - TEMPERATURES IN CELSIUS
  WCI - WIND CHILL INDEX
   HX - HEAT INDEX
  VSB - VISIBILITY
$$





USA.gov is the U.S. government's official web portal to all federal, state and local government web resources and services.